[[{"header":{"parameterUnit":"m.s-1","parameterCategory":1,"la1":30.2991,"la2":30.254,"lo1":-89.0895,"lo2":-89.0444,"dy":0.0017,"dx":0.0017,"nx":28,"ny":28,"refTime":"2024-05-22T03:00:00:Z","depth":0,"parameterNumber":2,"parameterNumberName":"U-component_of_WINDS"},"data":[0,0,0,0,0,0,0,0,0,0,0,0,0,0,0,0,0,0,0,0,0,0,0,0,0,0,0,0,0,0,0,0,0,0,0,0,0,0,0,0,0,0,0,0,0,0,0,0,0,0,0,0,0,0,0,0,0,0,-2.7481,-2.748,0,-2.7409,-2.7408,-2.7407,-2.7331,-2.7329,-2.7328,-2.7327,-2.7251,-2.725,-2.7249,0,0,0,0,0,0,0,0,0,0,0,0,0,-2.7551,-2.755,-2.7481,-2.748,-2.7479,-2.7409,-2.7408,-2.7407,-2.7331,-2.7329,-2.7328,-2.7327,-2.7251,-2.725,-2.7249,0,0,0,0,0,0,0,0,0,0,0,0,0,-2.7504,-2.755,-2.7481,-2.7433,-2.7428,-2.7409,-2.7408,-2.7407,-2.7331,-2.7329,-2.7328,-2.7326,-2.7252,-2.725,-2.7248,-2.7271,0,0,-2.7244,-2.7243,0,0,0,0,0,0,0,0,-2.7507,-2.7501,-2.7441,-2.7436,-2.743,-2.7377,-2.7404,-2.7361,-2.7331,-2.7368,-2.7327,-2.7326,-2.7294,-2.7289,-2.7279,-2.7267,-2.7264,-2.7243,-2.7243,-2.7242,-2.7241,0,0,0,0,0,0,0,-2.751,-2.7504,-2.7452,-2.744,-2.7434,-2.7414,-2.7406,-2.7396,-2.7341,-2.7364,-2.7359,-2.7351,-2.7291,-2.728,-2.7276,-2.7263,-2.7244,-2.7242,-2.7241,-2.7241,-2.7265,-2.7267,0,0,0,0,0,0,-2.7521,-2.7507,-2.7455,-2.745,-2.7466,-2.7414,-2.7405,-2.7396,-2.734,-2.7331,-2.7353,-2.7348,-2.7284,-2.7278,-2.7273,-2.7295,-2.7242,-2.724,-2.7239,-2.7263,-2.7265,-2.7267,0,0,0,0,0,0,-2.7523,-2.7517,-2.7457,-2.7477,-2.7468,-2.7415,-2.7405,-2.7395,-2.7385,-2.7332,-2.7321,-2.7352,-2.7282,-2.7275,-2.7272,-2.7291,-2.724,-2.7238,-2.7262,-2.7264,-2.7266,-2.7339,0,0,0,0,0,0,-2.7525,-2.7518,-2.7527,-2.7478,-2.7467,-2.7458,-2.7406,-2.7395,-2.7382,-2.7376,-2.7329,-2.7319,-2.728,-2.7275,-2.727,-2.7288,-2.7237,-2.726,-2.7263,-2.7266,-2.7334,-2.7343,-2.7351,0,0,0,0,0,-2.7528,-2.7549,-2.7527,-2.7521,-2.7477,-2.746,-2.7453,-2.7409,-2.7384,-2.7392,-2.7358,-2.7321,-2.729,-2.7275,-2.7269,-2.7287,-2.7258,-2.7262,-2.7265,-2.7331,-2.7342,-2.7351,0,0,0,0,0,0,-2.76,-2.7542,-2.7517,-2.7523,-2.7497,-2.7447,-2.7455,-2.7422,-2.7402,-2.7396,-2.7341,-2.7331,-2.7334,-2.731,-2.7294,-2.7305,-2.7269,-2.7272,-2.732,-2.733,-2.7339,-2.7343,-2.7236,0,0,0,0,0,-2.7618,-2.7609,-2.7558,-2.7569,-2.7557,-2.7509,-2.7499,-2.7468,-2.7438,-2.7426,-2.7392,-2.7364,-2.7347,-2.7338,-2.732,-2.7331,-2.7319,-2.734,-2.7349,-2.7356,-2.7358,-2.7361,-2.737,-2.7279,-2.7279,-2.7279,0,0,-2.7652,-2.7619,-2.7617,-2.7583,-2.7558,-2.755,-2.75,-2.7493,-2.7486,-2.7425,-2.7419,-2.7393,-2.7358,-2.7362,-2.7362,-2.7342,-2.7381,-2.7361,-2.7367,-2.7365,-2.7366,-2.7375,-2.7382,-2.7281,-2.7281,-2.7281,0,0,-2.771,-2.7685,-2.7691,-2.7668,-2.7632,-2.76,-2.7602,-2.7556,-2.7537,-2.7531,-2.7485,-2.7476,-2.7449,-2.7426,-2.7411,-2.7461,-2.7426,-2.7457,-2.75,-2.7504,-2.7511,-2.7517,-2.7534,-2.7541,-2.746,-2.746,-2.746,0,-2.7757,-2.7743,-2.7698,-2.7694,-2.768,-2.7626,-2.763,-2.761,-2.7571,-2.7562,-2.7541,-2.7507,-2.7479,-2.7476,-2.7489,-2.7479,-2.7478,-2.7461,-2.7514,-2.7519,-2.7524,-2.754,-2.7546,-2.7464,-2.7464,-2.7463,-2.7463,0,-2.7802,-2.7794,-2.7803,-2.7766,-2.7753,-2.7754,-2.7708,-2.77,-2.767,-2.764,-2.7634,-2.76,-2.7574,-2.7572,-2.7542,-2.7564,-2.7553,-2.7524,-2.7486,-2.7538,-2.7551,-2.7557,-2.747,-2.7468,-2.7467,-2.7466,0,0,-2.7903,-2.7842,-2.7846,-2.7829,-2.7786,-2.7778,-2.7776,-2.7752,-2.7746,-2.7721,-2.7717,-2.7697,-2.7669,-2.7652,-2.762,-2.7623,-2.7664,-2.7593,-2.7591,-2.7606,-2.7686,-2.7707,-2.7715,-2.7641,-2.7642,-2.7643,-2.7688,0,-2.7952,-2.7946,-2.7905,-2.7911,-2.7901,-2.785,-2.7848,-2.7822,-2.7794,-2.7782,-2.775,-2.7736,-2.7702,-2.7691,-2.7693,-2.7659,-2.7679,-2.7655,-2.7636,-2.7636,-2.7645,-2.7722,-2.7744,-2.7788,-2.7693,-2.7694,-2.7695,0,-2.8009,-2.7988,-2.7993,-2.795,-2.7945,-2.7944,-2.7918,-2.7908,-2.7876,-2.7855,-2.7837,-2.7801,-2.7795,-2.7761,-2.7752,-2.7737,-2.7727,-2.7709,-2.771,-2.7705,-2.7667,-2.7718,-2.7801,-2.7808,-2.7703,-2.7702,-2.7702,0,-2.808,-2.8053,-2.8052,-2.8039,-2.799,-2.7991,-2.797,-2.7937,-2.7925,-2.7903,-2.7894,-2.7871,-2.7858,-2.7841,-2.7799,-2.7779,-2.7795,-2.7757,-2.7776,-2.7777,-2.778,-2.778,-2.7862,-2.7777,-2.7777,-2.7777,-2.7776,0,-2.8139,-2.8143,-2.8084,-2.8083,-2.8086,-2.804,-2.8044,-2.8018,-2.799,-2.7983,-2.7937,-2.7931,-2.7877,-2.7865,-2.7832,-2.7829,-2.7824,-2.7806,-2.7797,-2.7809,-2.7812,-2.7801,-2.7796,-2.7778,-2.7778,-2.7777,-2.7777,0,-2.8218,-2.8179,-2.8174,-2.8128,-2.8117,-2.8121,-2.8081,-2.8078,-2.8048,-2.804,-2.8035,-2.7987,-2.7971,-2.7928,-2.79,-2.7878,-2.7883,-2.7867,-2.7894,-2.7888,-2.7909,-2.7907,-2.7985,-2.7992,-2.7904,-2.7905,-2.7906,0,-2.8257,-2.826,-2.8214,-2.8207,-2.8188,-2.8177,-2.8164,-2.8118,-2.8107,-2.8072,-2.8073,-2.8053,-2.8034,-2.801,-2.7972,-2.7951,-2.7933,-2.7962,-2.7929,-2.7942,-2.7932,-2.7932,-2.7931,-2.7969,-2.797,-2.7971,-2.7972,0,-2.8331,-2.8312,-2.8296,-2.8274,-2.8261,-2.8241,-2.8218,-2.8214,-2.8163,-2.8153,-2.8135,-2.8121,-2.8093,-2.8073,-2.8046,-2.8023,-2.7989,-2.7983,-2.7986,-2.7997,-2.8012,-2.8003,-2.7912,-2.7981,-2.798,-2.7979,-2.7979,-2.7978,-2.839,-2.839,-2.8358,-2.8342,-2.8321,-2.8301,-2.8296,-2.8266,-2.8251,-2.8224,-2.8198,-2.8184,-2.8152,-2.8112,-2.8092,-2.8079,-2.8061,-2.8066,-2.8067,-2.8068,-2.8073,-2.8016,-2.8074,-2.8074,-2.8074,-2.8073,-2.8073,0,-2.8461,-2.8438,-2.8424,-2.8394,-2.8382,-2.8352,-2.8325,-2.8317,-2.8305,-2.8278,-2.8261,-2.8241,-2.8222,-2.8184,-2.8161,-2.8158,-2.8141,-2.8153,-2.8152,-2.8147,-2.8091,-2.809,-2.8167,-2.8167,-2.8167,-2.8167,-2.8167,-2.8167,-2.8496,-2.8493,-2.847,-2.8456,-2.8433,-2.8419,-2.8406,-2.8387,-2.8366,-2.8346,-2.833,-2.8306,-2.8274,-2.8249,-2.823,-2.8219,-2.8212,-2.8229,-2.8213,-2.816,-2.8151,-2.8143,-2.8142,-2.8228,-2.8228,-2.8269,-2.827,-2.827]},{"header":{"parameterUnit":"m.s-1","parameterCategory":1,"la1":30.2991,"la2":30.254,"lo1":-89.0895,"lo2":-89.0444,"dy":0.0017,"dx":0.0017,"nx":28,"ny":28,"refTime":"2024-05-22T03:00:00:Z","depth":0,"parameterNumber":3,"parameterNumberName":"V-component_of_WINDS"},"data":[0,0,0,0,0,0,0,0,0,0,0,0,0,0,0,0,0,0,0,0,0,0,0,0,0,0,0,0,0,0,0,0,0,0,0,0,0,0,0,0,0,0,0,0,0,0,0,0,0,0,0,0,0,0,0,0,0,0,4.3808,4.3808,0,4.3825,4.3825,4.3825,4.3786,4.3785,4.3784,4.3783,4.3798,4.38,4.3802,0,0,0,0,0,0,0,0,0,0,0,0,0,4.374,4.3741,4.3808,4.3808,4.3808,4.3825,4.3825,4.3825,4.3787,4.3785,4.3784,4.3782,4.3798,4.38,4.3802,0,0,0,0,0,0,0,0,0,0,0,0,0,4.3764,4.3742,4.3807,4.3791,4.3789,4.3825,4.3825,4.3825,4.3787,4.3785,4.3783,4.3781,4.3797,4.38,4.3802,4.3853,0,0,4.3809,4.381,0,0,0,0,0,0,0,0,4.3763,4.3767,4.3793,4.3792,4.3791,4.3801,4.3807,4.3835,4.3787,4.3788,4.3783,4.3781,4.3801,4.3803,4.381,4.3854,4.3855,4.3809,4.3811,4.3812,4.3812,0,0,0,0,0,0,0,4.3761,4.3766,4.3814,4.3793,4.3792,4.3782,4.3783,4.3812,4.3804,4.3788,4.3785,4.3788,4.38,4.3808,4.381,4.3855,4.3809,4.3811,4.3813,4.3814,4.3942,4.3944,0,0,0,0,0,0,4.3762,4.3765,4.3814,4.3815,4.3772,4.3785,4.3786,4.38,4.3804,4.3803,4.3789,4.3786,4.3805,4.3807,4.381,4.3871,4.3812,4.3814,4.3815,4.394,4.3942,4.3945,0,0,0,0,0,0,4.376,4.3767,4.3813,4.3789,4.3794,4.3788,4.3803,4.3801,4.3809,4.3805,4.3803,4.3799,4.3803,4.3807,4.3843,4.3871,4.3815,4.3817,4.3938,4.3941,4.3944,4.3993,0,0,0,0,0,0,4.3759,4.3766,4.3786,4.379,4.3795,4.3846,4.3805,4.3803,4.3814,4.3809,4.3814,4.3813,4.3802,4.384,4.3845,4.3873,4.3819,4.3935,4.3939,4.3943,4.3989,4.3997,4.4004,0,0,0,0,0,4.3756,4.3799,4.3788,4.3794,4.382,4.3848,4.3851,4.3839,4.3816,4.3836,4.3833,4.3813,4.3867,4.3844,4.385,4.3879,4.3933,4.3938,4.3942,4.3985,4.3995,4.4004,0,0,0,0,0,0,4.3799,4.3799,4.3786,4.3832,4.384,4.3841,4.3866,4.385,4.3864,4.386,4.3843,4.3844,4.3883,4.3884,4.3859,4.3929,4.3896,4.3902,4.3927,4.3936,4.3944,4.3943,4.3821,0,0,0,0,0,4.3813,4.3836,4.3835,4.3875,4.388,4.3872,4.3884,4.3873,4.3881,4.3884,4.3884,4.3892,4.3911,4.3924,4.3941,4.3988,4.3989,4.4011,4.4019,4.4026,4.4031,4.4056,4.4066,4.3959,4.3959,4.3959,0,0,4.3844,4.3847,4.3862,4.3884,4.3889,4.3912,4.3875,4.3902,4.3919,4.3888,4.3922,4.3923,4.393,4.3972,4.3991,4.3974,4.406,4.4031,4.4036,4.4038,4.4062,4.4072,4.4081,4.3962,4.3962,4.3961,0,0,4.3911,4.3916,4.395,4.3956,4.3964,4.3959,4.3967,4.3971,4.397,4.4004,4.3982,4.4001,4.4034,4.404,4.4048,4.4118,4.4099,4.4124,4.4165,4.4189,4.4198,4.4205,4.423,4.4239,4.4129,4.4129,4.4129,0,4.3947,4.3982,4.3969,4.3997,4.4007,4.3981,4.4014,4.4021,4.4034,4.4042,4.4023,4.4064,4.4067,4.411,4.4127,4.4134,4.4143,4.4123,4.4198,4.4205,4.4212,4.4235,4.4245,4.4132,4.4132,4.4131,4.4131,0,4.4027,4.4051,4.4078,4.4092,4.4105,4.4136,4.4126,4.4141,4.4129,4.4126,4.416,4.4163,4.4181,4.419,4.4179,4.4232,4.4221,4.4201,4.4168,4.4225,4.4247,4.4256,4.4136,4.4135,4.4134,4.4133,0,0,4.4122,4.4128,4.4138,4.4144,4.4152,4.417,4.42,4.4217,4.423,4.424,4.4264,4.4292,4.4273,4.4282,4.4271,4.4293,4.4348,4.4269,4.4269,4.4284,4.4406,4.4422,4.4433,4.4336,4.4337,4.4339,4.4406,0,4.4189,4.424,4.4228,4.4279,4.4301,4.4276,4.4301,4.4309,4.4306,4.4324,4.432,4.4341,4.4314,4.4319,4.434,4.4337,4.4372,4.4332,4.4358,4.4359,4.4357,4.4444,4.4461,4.4524,4.4414,4.4416,4.4417,0,4.4274,4.4288,4.4341,4.4344,4.4353,4.4377,4.4392,4.4409,4.4416,4.4413,4.4423,4.4407,4.4436,4.4403,4.4441,4.4414,4.4424,4.4424,4.4426,4.4428,4.4391,4.4449,4.4544,4.4554,4.443,4.4429,4.4428,0,4.4338,4.437,4.4406,4.4412,4.4417,4.4434,4.4437,4.4442,4.4453,4.4466,4.4473,4.4489,4.4498,4.451,4.4499,4.4476,4.454,4.4506,4.4537,4.4538,4.4552,4.4552,4.4651,4.4558,4.4558,4.4558,4.4558,0,4.4414,4.4447,4.4435,4.4457,4.4493,4.4479,4.4515,4.4515,4.452,4.4541,4.452,4.454,4.4525,4.4543,4.4535,4.4568,4.4572,4.457,4.4567,4.4572,4.4573,4.4579,4.4574,4.456,4.456,4.4559,4.4559,0,4.4492,4.4485,4.4522,4.4524,4.4526,4.4552,4.4554,4.4574,4.4569,4.4596,4.4602,4.4595,4.4616,4.4606,4.4628,4.4622,4.4665,4.4657,4.4663,4.4661,4.4694,4.4691,4.48,4.4814,4.4712,4.4713,4.4714,0,4.4542,4.4567,4.4572,4.4585,4.4589,4.461,4.4622,4.4608,4.4621,4.4631,4.465,4.4669,4.4684,4.4718,4.4714,4.4731,4.4723,4.476,4.4725,4.4729,4.4723,4.4722,4.4725,4.4767,4.4768,4.4769,4.477,0,4.463,4.4625,4.4643,4.466,4.4674,4.4686,4.4696,4.4708,4.4695,4.471,4.4731,4.4743,4.4765,4.4784,4.4798,4.48,4.4783,4.4781,4.4789,4.4794,4.4797,4.4796,4.4683,4.4778,4.4778,4.4777,4.4776,4.4776,4.4696,4.4717,4.4724,4.4744,4.475,4.476,4.4779,4.4777,4.4795,4.4813,4.4803,4.4828,4.4834,4.4852,4.4856,4.4875,4.486,4.4872,4.4875,4.4879,4.4883,4.4794,4.4878,4.4877,4.4877,4.4877,4.4877,0,4.4784,4.4787,4.4805,4.4821,4.4836,4.4819,4.4829,4.4843,4.4866,4.4873,4.4888,4.4912,4.4931,4.4929,4.4945,4.4961,4.4953,4.4966,4.4965,4.4965,4.4895,4.4887,4.4971,4.4971,4.4971,4.4971,4.4971,4.4971,4.4831,4.4866,4.4862,4.49,4.4902,4.4927,4.4934,4.4943,4.4949,4.4977,4.4993,4.4991,4.4995,4.5011,4.5027,4.5026,4.5033,4.5049,4.5045,4.498,4.497,4.4961,4.4953,4.505,4.5051,4.5113,4.5114,4.5114]}]]